TimeCST,TemperatureF,Dew PointF,Humidity,Sea Level PressureIn,VisibilityMPH,Wind Direction,Wind SpeedMPH,Gust SpeedMPH,PrecipitationIn,Events,Conditions,WindDirDegrees,DateUTC
12:53 AM,63.0,57.0,81,29.89,10.0,SW,13.8,-,N/A,,Scattered Clouds,220,2014-02-19 06:53:00
1:53 AM,63.0,57.9,84,29.89,10.0,WSW,12.7,-,N/A,,Overcast,240,2014-02-19 07:53:00
2:53 AM,62.1,57.9,86,29.90,10.0,WSW,10.4,-,N/A,,Scattered Clouds,250,2014-02-19 08:53:00
3:11 AM,62.6,57.2,82,29.91,10.0,WSW,11.5,-,N/A,,Mostly Cloudy,240,2014-02-19 09:11:00
3:53 AM,62.1,57.9,86,29.91,10.0,WSW,9.2,-,0.00,,Mostly Cloudy,240,2014-02-19 09:53:00
4:43 AM,60.8,57.2,88,29.93,10.0,WSW,10.4,20.7,N/A,,Scattered Clouds,240,2014-02-19 10:43:00
4:53 AM,60.1,57.0,90,29.93,10.0,WSW,10.4,-,N/A,,Partly Cloudy,240,2014-02-19 10:53:00
5:53 AM,60.1,57.9,93,29.95,10.0,West,8.1,-,N/A,,Mostly Cloudy,280,2014-02-19 11:53:00
6:13 AM,60.8,57.2,88,29.97,10.0,WNW,9.2,-,N/A,,Overcast,290,2014-02-19 12:13:00
6:38 AM,60.8,57.2,88,29.97,10.0,WNW,10.4,-,N/A,,Overcast,300,2014-02-19 12:38:00
6:53 AM,60.1,57.0,90,29.98,9.0,WNW,9.2,-,N/A,,Overcast,300,2014-02-19 12:53:00
7:06 AM,59.0,55.4,88,29.99,10.0,NW,13.8,-,N/A,,Overcast,320,2014-02-19 13:06:00
7:16 AM,57.2,53.6,88,30.00,10.0,NNW,9.2,-,N/A,,Overcast,330,2014-02-19 13:16:00
7:27 AM,57.2,48.2,72,30.01,10.0,NW,10.4,19.6,N/A,,Mostly Cloudy,320,2014-02-19 13:27:00
7:33 AM,55.4,48.2,77,30.01,10.0,NW,8.1,-,N/A,,Scattered Clouds,320,2014-02-19 13:33:00
7:53 AM,55.9,48.0,75,30.02,10.0,NNW,8.1,-,N/A,,Clear,330,2014-02-19 13:53:00
8:53 AM,57.0,41.0,55,30.03,10.0,North,8.1,-,N/A,,Clear,10,2014-02-19 14:53:00
9:53 AM,60.1,39.9,47,30.05,10.0,North,11.5,-,N/A,,Clear,360,2014-02-19 15:53:00
10:53 AM,62.1,36.0,38,30.04,10.0,East,8.1,-,N/A,,Clear,80,2014-02-19 16:53:00
11:53 AM,64.0,30.9,29,30.02,10.0,North,3.5,-,N/A,,Clear,350,2014-02-19 17:53:00
12:53 PM,66.0,28.9,25,29.99,10.0,NNE,5.8,-,N/A,,Clear,30,2014-02-19 18:53:00
1:53 PM,66.9,30.0,25,29.98,10.0,NNW,3.5,-,0.00,,Mostly Cloudy,340,2014-02-19 19:53:00
2:53 PM,66.9,33.1,28,29.96,10.0,ENE,4.6,-,0.00,Rain,Light Rain,60,2014-02-19 20:53:00
3:53 PM,68.0,39.0,35,29.96,10.0,East,4.6,-,0.00,,Mostly Cloudy,100,2014-02-19 21:53:00
4:53 PM,66.0,39.0,37,29.94,10.0,East,4.6,-,N/A,,Overcast,100,2014-02-19 22:53:00
5:53 PM,64.0,41.0,43,29.94,10.0,Calm,Calm,-,N/A,,Clear,0,2014-02-19 23:53:00
6:53 PM,60.1,41.0,49,29.94,10.0,ESE,4.6,-,N/A,,Mostly Cloudy,120,2014-02-20 00:53:00
7:53 PM,64.0,45.0,50,29.92,10.0,Variable,3.5,-,N/A,,Overcast,0,2014-02-20 01:53:00
8:53 PM,63.0,48.9,60,29.91,10.0,SSE,3.5,-,N/A,,Overcast,150,2014-02-20 02:53:00
9:53 PM,64.0,54.0,70,29.90,10.0,Variable,5.8,-,N/A,,Mostly Cloudy,0,2014-02-20 03:53:00
10:53 PM,63.0,55.9,78,29.88,10.0,SSE,8.1,-,N/A,,Overcast,160,2014-02-20 04:53:00
11:53 PM,63.0,57.0,81,29.85,10.0,SSE,6.9,-,N/A,,Partly Cloudy,150,2014-02-20 05:53:00